Regional Weather Roundup
Issued by NWS Albany, NY

Current Version | Previous Version | Graphics & Text | Print | Product List | Glossary Off
Versions: 1 2 3 4 5 6 7 8 9 10 11 12 13 14 15 16 17 18 19 20 21 22 23 24 25 26 27 28 29 30 31 32 33 34 35 36 37 38 39 40 41 42 43 44 45 46 47 48 49 50

000
ASUS41 KALY 220810
RWRALY

NEW YORK STATE HOURLY WEATHER ROUNDUP
NATIONAL WEATHER SERVICE ALBANY NY
400 AM EDT MON SEP 22 2014

NOTE: "FAIR" INDICATES FEW OR NO CLOUDS BELOW 12,000 FEET WITH NO
SIGNIFICANT WEATHER AND/OR NO OBSTRUCTIONS TO VISIBILITY.

NYZ032-033-038>043-046>054-057>066-NYZ062>081-220900-
EAST


CITY           SKY/WX    TMP DP  RH WIND       PRES   REMARKS
ALBANY         PTCLDY    61  53  75 SW8       29.63R
GLENS FALLS    PTCLDY    56  54  93 S7        29.59R
POUGHKEEPSIE   PTCLDY    63  57  81 SW8       29.65R
NEWBURGH       CLEAR     59  57  94 SW5       29.69R
MONTGOMERY     CLEAR     56  55  97 SW6       29.68R
WHITE PLAINS   PTCLDY    63  56  78 NW7       29.67R
ISLIP          PTCLDY    66  60  81 NW8       29.64R
NEW YORK CITY  PTCLDY    68  57  68 W12G17    29.67R
CENTRAL PARK   PTCLDY    67  57  70 NW6       29.71R
$$

NYZ005>009-017-018-044>046-055-056-220900-
CENTRAL


CITY           SKY/WX    TMP DP  RH WIND       PRES   REMARKS
FULTON         LGT RAIN  52  49  89 NW10      29.74R FOG
SYRACUSE       LGT RAIN  54  52  93 NW10      29.72R FOG
ROME           CLOUDY    57  55  93 W14G21    29.68R
ELMIRA         LGT RAIN  58  52  80 W14G23    29.74R
BINGHAMTON     CLOUDY    54  51  90 W8        29.72R
MONTICELLO     CLEAR     55  52  88 W9        29.71S
$$

NYZ026>034-041>043-220900-
NORTH


CITY           SKY/WX    TMP DP  RH WIND       PRES   REMARKS
WATERTOWN      LGT RAIN  52  44  74 NW8       29.72R
FORT DRUM      NOT AVBL
MASSENA        LGT RAIN  50  47  89 W13G23    29.64R
SARANAC LAKE   CLOUDY    49  48  97 W8        29.59R
PLATTSBURGH    MOCLDY    61  56  83 W8        29.52R
$$

NYZ001>004-010>016-019>021-220900-
WEST


CITY           SKY/WX    TMP DP  RH WIND       PRES   REMARKS
NIAGARA FALLS  CLOUDY    50  45  83 NW14      29.86R
BUFFALO        CLOUDY    50  44  80 NW13G21   29.86R
DUNKIRK        LGT RAIN  50  47  89 NW13      29.90R FOG
JAMESTOWN      CLOUDY    46  45  93 NW9       29.89R
WELLSVILLE     LGT RAIN  49  47  93 NW16      29.82S
ROCHESTER      LGT RAIN  52  50  93 NW9       29.80R FOG
PENN YAN       CLOUDY    54  51  90 NW13G23   29.77R
$$

             KEY
       WCI = WIND CHILL INDEX
       VSB = VISIBILITY
       HX  = HEAT INDEX
$$



USA.gov is the U.S. government's official web portal to all federal, state and local government web resources and services.